Regional Weather Roundup
Issued by NWS

Home | Current Version | Previous Version | Text Only | Print | Product List | Glossary Off
Versions: 1 2 3 4 5 6 7 8 9 10 11 12 13 14 15 16 17 18 19 20 21 22 23 24 25 26 27 28 29 30 31 32 33 34 35 36 37 38 39 40 41 42 43 44 45 46 47 48 49 50

000
ASUS45 KPSR 160210
RWRAZ

ARIZONA REGIONAL HOURLY WEATHER ROUNDUP
NATIONAL WEATHER SERVICE PHOENIX AZ
700 PM MST MON SEP 15 2014

NOTE: FAIR INDICATES FEW OR NO CLOUDS BELOW 12,000 FEET WITH NO
SIGNIFICANT WEATHER AND/OR OBSTRUCTIONS TO VISIBILITY.

AZZ001>003-036-160300-
NORTHWEST ARIZONA

CITY           SKY/WX    TMP DP  RH WIND       PRES   REMARKS
BULLHEAD CITY  CLEAR    102  50  17 SW6       29.73S
KINGMAN        PTCLDY    88  50  27 SW8       29.97R
$$

AZZ004>008-015-016-018-160300-
NORTH CENTRAL ARIZONA

CITY           SKY/WX    TMP DP  RH WIND       PRES   REMARKS
GRAND CANYON   CLEAR     63  45  51 CALM      30.25R
PRESCOTT       MOCLDY    74  49  41 S5        30.15R
FLAGSTAFF      PTCLDY    64  48  56 SW6       30.30R
PAYSON         MOCLDY    75  50  41 VRB3      30.16S
PAGE           PTCLDY    87  40  19 S5        30.04S
$$

AZZ009>014-017-160300-
NORTHEAST ARIZONA

CITY           SKY/WX    TMP DP  RH WIND       PRES   REMARKS
WINSLOW        MOCLDY    80  50  34 SW12      30.10R
SAINT JOHNS    CLOUDY    73  54  51 NE5       30.19R
WINDOW ROCK    LGT RAIN  63  52  67 SE10      30.32R
SHOW LOW       CLOUDY    66  45  45 S14       30.24R
$$

AZZ023-160300-
GREATER PHOENIX AREA

CITY           SKY/WX    TMP DP  RH WIND       PRES   REMARKS
PHOENIX        MOCLDY   100  56  23 CALM      29.77R
BUCKEYE          N/A     95  61  31 E5        29.78S
GLENDALE       MOCLDY    99  63  30 S3        29.79R HX 100
LUKE AFB       MOCLDY    99  61  27 W3        29.77S HX 100
DEER VALLEY    MOCLDY    98  56  24 NW8       29.81R
SCOTTSDALE     MOCLDY    98  58  26 SW3       29.82R
MESA-FALCON    MOCLDY    97  59  28 W7        29.79S
MESA-GATEWAY   MOCLDY    99  59  26 NW5       29.82R
CHANDLER       MOCLDY    99  59  26 N6        29.79R
$$

AZZ027-028-160300-
SOUTHWEST MARICOPA COUNTY AND PINAL COUNTY

CITY           SKY/WX    TMP DP  RH WIND       PRES   REMARKS
CASA GRANDE    MOCLDY    97  59  28 CALM      29.81S
GILA BEND      MOCLDY   100  55  22 NE5       29.77R
$$

AZZ503-504-507>509-160300-
SOUTHEAST ARIZONA

CITY           SKY/WX    TMP DP  RH WIND       PRES   REMARKS
TUCSON         CLOUDY    87  62  43 S10       29.94R
DAVIS-MONTHAN  CLOUDY    84  63  48 S10       29.93R
RYAN FIELD       N/A     90  61  37 CALM      29.91S
NOGALES        CLOUDY    73  63  70 S7        30.05R
SIERRA VISTA   CLOUDY    75  61  60 SE15G22   30.10R
DOUGLAS        CLOUDY    76  60  57 SE14      30.10R
SAFFORD        CLOUDY    86  56  35 E9        29.99R
$$

AZZ020-021-025-026-031-160300-
SOUTHWEST ARIZONA

CITY           SKY/WX    TMP DP  RH WIND       PRES   REMARKS
YUMA           MOCLDY    98  68  37 S17       29.70R HX 103
$$

CAZ031-033-041-043-047-048-061-160300-
SOUTHERN CALIFORNIA

CITY           SKY/WX    TMP DP  RH WIND       PRES   REMARKS
DOWNTOWN L.A.  CLEAR     90  58  33 CALM      29.70S
L.A. AIRPORT   PTCLDY    82  61  48 W10       29.71S
SAN DIEGO      PTCLDY    81  68  64 NW7       29.77R
BURBANK        CLEAR     97  50  20 W7        29.75S
ONTARIO        PTCLDY    96  51  21 W9        29.75R
RIVERSIDE      CLEAR     94  52  24 W9        29.75R
PALM SPRINGS   PTCLDY   106  54  17 E8        29.71R HX 104
EL CENTRO NAS  PTCLDY   106  54  17 CALM      29.65S HX 104
IMPERIAL       CLEAR    103  59  23 W6        29.64S HX 103
BLYTHE         CLEAR    105  57  20 NE5       29.69S HX 104
NEEDLES        CLEAR    104  49  15 CALM      29.74S HX 101
$$

NVZ020-UTZ003-160300-
SOUTHERN NEVADA-UTAH

CITY           SKY/WX    TMP DP  RH WIND       PRES   REMARKS
LAS VEGAS      PTCLDY    99  39  12 CALM      29.81S
SALT LAKE CITY PTCLDY    77  42  28 CALM      30.04S
$$

NMZ009-TXZ055-160300-
NEW MEXICO-WEST TEXAS

CITY           SKY/WX    TMP DP  RH WIND       PRES   REMARKS
ALBUQUERQUE    CLOUDY    71  56  58 SE14      30.23R
EL PASO        LGT RAIN  73  64  73 E3        30.14S
$$


........................KEY........................
SKY/WX - SKY CONDITION/WEATHER
TMP    - TEMPERATURE IN FAHRENHEIT
DP     - DEW POINT IN FAHRENHEIT
RH     - RELATIVE HUMIDITY IN PERCENT
WIND   - DIRECTION AND SPEED IN MILES PER HOUR (MPH)
VRB    - VARIABLE WIND DIRECTION
PRES   - MEAN SEA LEVEL PRESSURE IN INCHES OF MERCURY
         F - FALLING PRESSURE   R - RISING PRESSURE
         S - STEADY PRESSURE
VSB    - VISIBILITY IN MILES
HX     - HEAT INDEX IN FAHRENHEIT
WCI    - WIND CHILL INDEX IN FAHRENHEIT
TC     - TEMPERATURE IN CELSIUS WHICH IS ALSO KNOWN AS
         TEMPERATURE IN CENTIGRADE
AFB    - AIR FORCE BASE
         LUKE AFB IS LUKE AIR FORCE BASE
         DAVIS-MONTHAN IS DAVIS-MONTHAN AIR FORCE BASE
NAS    - NAVAL AIR STATION
         EL CENTRO NAS IS EL CENTRO NAVAL AIR STATION
N/A    - NOT AVAILABLE



USA.gov is the U.S. government's official web portal to all federal, state and local government web resources and services.